This is the latest recevied weather packets stored in our database for station/object KC2WGU. If no packets are shown the sender has not sent any weather packets the latest 1 day(s).
| Time | Temp. | Humidity | Pressure | Rain* | Wind** | Luminosity | Snow |
|---|---|---|---|---|---|---|---|
| 1778049622 | 10.56° C | 89% | 1006.8 hPa | 0 mm | - | 0 W/m² | - |
| 1778049022 | 10.56° C | 89% | 1006.7 hPa | 0 mm | - | 0 W/m² | - |
| 1778044223 | 11.67° C | 87% | 1007.3 hPa | 0 mm | - | 0 W/m² | - |
| 1778043622 | 11.67° C | 87% | 1007.6 hPa | 0 mm | - | 0 W/m² | - |
| 1778043022 | 11.67° C | 87% | 1007.6 hPa | 0 mm | - | 0 W/m² | - |
| 1778042422 | 12.22° C | 87% | 1007.4 hPa | 0 mm | - | 0 W/m² | - |
| 1778040622 | 12.22° C | 86% | 1007.9 hPa | 0 mm | - | 0 W/m² | - |
| 1778040022 | 12.22° C | 86% | 1007.9 hPa | 0 mm | - | 0 W/m² | - |
| 1778039422 | 12.22° C | 86% | 1007.7 hPa | 0 mm | - | 0 W/m² | - |
| 1778038222 | 12.22° C | 85% | 1007.8 hPa | 0 mm | - | 0 W/m² | - |
| 1778037622 | 12.22° C | 84% | 1007.7 hPa | 0 mm | - | 0 W/m² | - |
| 1778037023 | 12.78° C | 83% | 1007.7 hPa | 0 mm | - | 0 W/m² | - |
| 1778035822 | 12.22° C | 82% | 1007.5 hPa | 0 mm | - | 0 W/m² | - |
| 1778034623 | 12.22° C | 82% | 1007.6 hPa | 0 mm | - | 0 W/m² | - |
| 1778034023 | 12.22° C | 82% | 1007.7 hPa | 0 mm | - | 0 W/m² | - |
| 1778033423 | 12.78° C | 81% | 1007.7 hPa | 0 mm | - | 0 W/m² | - |
| 1778032823 | 12.78° C | 81% | 1007.7 hPa | 0 mm | - | 0 W/m² | - |
| 1778030422 | 13.89° C | 82% | 1006.8 hPa | 0 mm | - | 0 W/m² | - |
| 1778029822 | 15° C | 83% | 1006.5 hPa | 0 mm | - | 0 W/m² | - |
| 1778029222 | 15.56° C | 84% | 1006 hPa | 0 mm | - | 0 W/m² | - |
| 1778028621 | 16.11° C | 85% | 1005.9 hPa | 0.25 mm | - | 0 W/m² | - |
| 1778028022 | 16.11° C | 84% | 1005.4 hPa | 0.25 mm | - | 0 W/m² | - |
| 1778027423 | 16.11° C | 83% | 1005.2 hPa | 0.25 mm | - | 0 W/m² | - |
| 1778026222 | 16.67° C | 82% | 1005.3 hPa | 0.25 mm | - | 0 W/m² | - |
| 1778024423 | 17.22° C | 77% | 1004.7 hPa | 0 mm | - | 6 W/m² | - |
* Rain latest hour (hover to see other rain measurements)
** Current wind speed in m/s (hover to see current wind gust speed)